Weather History for PAFB - April, 2013

Change the Weather History Date:

Monday, April 15, 2013

  Actual Average Record
Temperature  
Mean Temperature 18 °F -  
Max Temperature 30 °F 41 °F 55 °F (1998)
Min Temperature 6 °F 22 °F 6 °F (2013)
Degree Days  
Heating Degree Days 47    
Moisture  
Dew Point 4 °F    
Average Humidity 53    
Maximum Humidity 88    
Minimum Humidity 32    
Precipitation  
Precipitation 0.00 in - - ()
Snow  
Snow 0.00 in - - ()
Snow Depth 21.00 in    
Sea Level Pressure  
Sea Level Pressure 30.52 in    
Wind  
Wind Speed 6 mph (ENE)    
Max Wind Speed 14 mph    
Max Gust Speed -    
Visibility 8 miles    
Events      
Averages and records for this station are not official NWS values.
T = Trace of Precipitation, MM = Missing Value Source: NWS Daily Summary

Daily Weather History Graph

Daily Weather History Graph

Search for Another Location

Airport or City:

Trip Planner

Search our weather history database for the weather conditions in past years. The results will help you decide how hot, cold, wet, or windy it might be!

Date:

Astronomy

Apr. 15, 2013 Rise Set
Actual Time 6:13 AM AKDT 9:28 PM AKDT
Civil Twilight 5:16 AM AKDT 10:27 PM AKDT
Nautical Twilight 3:49 AM AKDT 11:57 PM AKDT
Astronomical Twilight Sun does not set Sun does not set
Moon 8:29 AM AKDT (4/15) 3:06 AM AKDT (4/15)
Length of Visible Light 17h 10m
Length of Day
15h 14m
Waxing Crescent, 26% of the Moon is Illuminated
Apr 15
Waxing Crescent
Apr 18
First Quarter
Apr 25
Full
May 2
Last Quarter
May 9
New

Hourly Weather History & Observations

Time (AKDT) Temp. Windchill Dew Point Humidity Pressure Visibility Wind Dir Wind Speed Gust Speed Precip Events Conditions
12:56 AM 10.9 °F 2.9 °F 8.1 °F 88% 30.55 in 10.0 mi East 4.6 mph - N/A   Clear
1:56 AM 14.0 °F 6.5 °F 8.1 °F 77% 30.55 in 10.0 mi ENE 4.6 mph - N/A   Scattered Clouds
2:56 AM 17.1 °F 8.7 °F 8.1 °F 68% 30.54 in 10.0 mi NE 5.8 mph - N/A   Mostly Cloudy
3:56 AM 19.0 °F 11.1 °F 8.1 °F 62% 30.54 in 10.0 mi ENE 5.8 mph - N/A   Overcast
4:56 AM 18.0 °F 8.7 °F 6.1 °F 60% 30.54 in 10.0 mi ENE 6.9 mph - N/A   Overcast
5:56 AM 12.9 °F 6.9 °F 3.9 °F 67% 30.54 in 10.0 mi East 3.5 mph - N/A   Scattered Clouds
6:30 AM 6.8 °F - 1.4 °F 79% 30.52 in 7.0 mi Calm Calm - N/A   Scattered Clouds
6:55 AM 8.6 °F - 1.4 °F 73% 30.56 in 7.0 mi Calm Calm - N/A   Mostly Cloudy
7:55 AM 6.8 °F - 1.4 °F 79% 30.56 in 7.0 mi Calm Calm - N/A   Mostly Cloudy
8:55 AM 8.6 °F - 5.0 °F 85% 30.56 in 7.0 mi Calm Calm - N/A   Mostly Cloudy
9:55 AM 15.8 °F - 5.0 °F 62% 30.56 in 7.0 mi Calm Calm - N/A   Mostly Cloudy
10:55 AM 19.4 °F 14.3 °F 5.0 °F 54% 30.55 in 7.0 mi West 3.5 mph - N/A   Mostly Cloudy
11:15 AM 26.6 °F - 5.0 °F 40% 30.51 in 10.0 mi SW 2.3 mph - N/A   Partly Cloudy
11:55 AM 28.4 °F 17.5 °F 3.2 °F 34% 30.53 in 7.0 mi East 13.8 mph - N/A   Mostly Cloudy
12:55 PM 28.4 °F 20.4 °F 3.2 °F 34% 30.53 in 7.0 mi East 8.1 mph - N/A   Mostly Cloudy
1:55 PM 30.2 °F 21.9 °F 3.2 °F 32% 30.52 in 7.0 mi NNE 9.2 mph - N/A   Mostly Cloudy
2:55 PM 28.4 °F 19.7 °F 3.2 °F 34% 30.52 in 25.0 mi ENE 9.2 mph - N/A   Mostly Cloudy
3:55 PM 30.2 °F 20.2 °F 3.2 °F 32% 30.50 in 25.0 mi ENE 12.7 mph - N/A   Mostly Cloudy
4:55 PM 28.4 °F 19.1 °F 3.2 °F 34% 30.49 in 25.0 mi ENE 10.4 mph - N/A   Mostly Cloudy
5:55 PM 26.6 °F 15.7 °F 3.2 °F 37% 30.49 in 25.0 mi NE 12.7 mph - N/A   Mostly Cloudy
6:55 PM 26.6 °F 16.2 °F 3.2 °F 37% 30.49 in 25.0 mi NNE 11.5 mph - N/A   Mostly Cloudy
7:55 PM 26.6 °F 17.5 °F 3.2 °F 37% 30.49 in 25.0 mi NE 9.2 mph - N/A   Mostly Cloudy
8:55 PM 24.8 °F 15.3 °F 3.2 °F 40% 30.49 in 25.0 mi ENE 9.2 mph - N/A   Mostly Cloudy
9:55 PM 23.0 °F 13.9 °F 3.2 °F 43% 30.49 in 25.0 mi ENE 8.1 mph - N/A   Mostly Cloudy
10:56 PM 23.0 °F 13.1 °F 5.0 °F 46% 30.48 in 10.0 mi ENE 9.2 mph - N/A   Overcast
11:56 PM 23.0 °F 13.9 °F 5.0 °F 46% 30.47 in 10.0 mi ENE 8.1 mph - N/A   Overcast